DECAYED

FENGYUN 1C DEB, 30420 (Decayed)

Orbit data source: Space-Track

FENGYUN 1C DEB, 30420 was space debris in SSO originally from a launch on Mon, 10 May 1999 UTC launched from the Taiyaun Space Center, China (TSC). Fengyun 1C debris stems from the Chinese weather satellite Fengyun-1C, which was intentionally destroyed by a Chinese anti-satellite missile in 2007. This event dramatically increased the amount of space debris, with thousands of trackable fragments posing hazards to satellites and human spaceflight. The Fengyun 1C debris cloud has become a focal point in discussions about space sustainability and the need for international regulations to prevent the creation of new debris.

Not visible in the next 10 days
Identifier
30420, 1999-025AEK
Orbit
Decayed
Country
Flag of CNCN / PRC
Related business
Manufacturer
Unknown
Mission
Decayed spacecraft
Bus & Motor
Unknown
Mass
Unknown
Launch date (UTC)
1999-05-10 (27 years ago)
Launch vehicle
Unknown
Launch site
Taiyaun Space Center, China (TSC)
Object type
Payload
Rocket body
Debris
Shape & HBR
Unknown shape, 0.1 m
Radar Cross Section
Small (<0.1 m²)

Expand to show TLE details & history
Last TLE update: 6 months ago

TLE from 6 months ago
0 FENGYUN 1C DEB
1 30420U 99025AEK 25292.16377505  .05909770  33421-5  36971-2 0  9991
2 30420  98.8829   9.0882 0009088 251.5422 108.4873 16.17736347  7821
Epoch: 2025-10-19T03:55Z
TLE epoch observation values (Epoch: 2025-10-19T03:55:50.164Z)
Latitude
-0.00004°
Longitude
-77.75519°
Altitude
230.787 km
Speed
7.767 km/s
True Right ascension
00h 36m 21s
True Declination
0° 00' 00"
Sunlit
Object was in full shadow at epoch
Visualization orbit readout
Latitude
Unknown
Longitude
Unknown
Altitude
Unknown
Speed
Unknown
Apparent Right ascension
Unknown
Apparent Declination
Unknown
Sunlit
N/A
Visualization observer readout
Local Sidereal Time
10:30:07
Azimuth
Unknown
Elevation
Unknown
Doppler factor
Unknown
Orbital elements
Apogee altitude
228.613 km
Perigee altitude
216.615 km
Semi-major axis
6,600.751 km
Eccentricity
0.00091
Inclination
98.8829°
RAAN
9.0882°
Arg. of periapsis
251.5422°
True anomaly
108.58603°
Mean anomaly
108.4873°
Eccentric anomaly
108.53667°
Mean motion
4.04719 °/min
Orbital period
88.95 mins
BSTAR
0.0036971
Loading maneuver chart data...
Computing Atmospheric mass density...
Loading historical data...
Loading historical data...
Loading historical data...
Loading historical data...
Loading historical data...
Loading historical data...
Loading historical data...

Documentation

Showing up to 5 results
|